User: anonymous   Login
Location: Unspecified
(0.0000°N, 0.0000°E)
Time: 10:19:49
(UTC+00:00)
Language:

Tiangong 2 - Orbit

View from above orbital plane
View from above orbital plane
View from above satellite
View from above satellite

Ground track
Ground track

The orbit data is extracted from the following two-line orbital elements,

1 41765U 16057A   19114.18642361  .00003914  00000-0  49149-4 0  9997
2 41765  42.7830 288.9797 0008704 257.3458  89.9171 15.61315794148596
Epoch (UTC): 24 April 2019 04:28:27
Eccentricity: 0.0008704
inclination: 42.7830°
perigee height: 378 km
apogee height: 390 km
right ascension of ascending node: 288.9797°
argument of perigee: 257.3458°
revolutions per day: 15.61315794
mean anomaly at epoch: 89.9171°
orbit number at epoch: 14859

The dashed part of the orbit path shows where the satellite is in the earth's shadow,  

DLR